Location: Newark
(52.2352°N, 0.6006°W)
Time: 01:37:04
(UTC+00:00)

Envisat - Visible Passes

Search period start: 23 January 2020 00:00
Search period end: 02 February 2020 00:00
Orbit: 764 x 766 km, 98.1° (Epoch: 22 January)

Date Brightness Start Highest point End Pass type
(mag) Time Alt. Az. Time Alt. Az. Time Alt. Az.
23 Jan 5.5 05:46:45 10° NE 05:50:46 23° E 05:54:45 10° SE visible
23 Jan 3.2 17:06:35 10° SE 17:11:29 52° ENE 17:16:26 10° N visible
23 Jan 5.2 18:46:29 10° SSW 18:50:48 27° W 18:55:08 10° NW visible
24 Jan 6.3 05:11:42 10° ENE 05:13:28 12° E 05:15:14 10° ESE visible
24 Jan 3.4 06:48:20 10° NNE 06:53:27 70° ESE 06:58:31 10° S visible
24 Jan 3.9 18:08:48 10° S 18:13:45 53° W 18:18:45 10° NNW visible
25 Jan 4.7 06:11:48 10° NNE 06:16:30 36° E 06:21:09 10° SSE visible
25 Jan 3.0 17:31:50 10° SSE 17:36:55 81° ENE 17:42:02 10° NNW visible
25 Jan 5.9 19:13:15 10° SW 19:16:35 18° W 19:19:57 10° NW visible
26 Jan 5.8 05:35:45 10° NE 05:39:21 19° E 05:42:55 10° SE visible
26 Jan 3.0 07:13:51 10° NNE 07:18:57 75° WNW 07:24:01 10° SSW visible
26 Jan 4.8 18:34:50 10° SSW 18:39:24 33° W 18:44:01 10° NNW visible
27 Jan 3.8 06:37:05 10° NNE 06:42:08 58° E 06:47:07 10° S visible
27 Jan 3.5 17:57:23 10° S 18:02:25 65° WSW 18:07:30 10° NNW visible
27 Jan 6.4 19:41:27 10° W 19:42:29 11° W 19:43:31 10° WNW visible
28 Jan 5.1 06:00:39 10° NNE 06:05:07 30° E 06:09:33 10° SSE visible
28 Jan 3.0 17:20:36 10° SSE 17:25:38 67° ENE 17:30:42 10° N visible
28 Jan 5.6 19:01:20 10° SW 19:05:09 21° W 19:09:00 10° NW visible
29 Jan 6.1 05:24:52 10° NE 05:27:54 16° E 05:30:54 10° ESE visible
29 Jan 3.1 07:02:32 10° NNE 07:07:40 90° W 07:12:45 10° SSW visible
29 Jan 4.5 18:23:16 10° SSW 18:28:02 40° W 18:32:50 10° NNW visible
30 Jan 4.2 06:25:51 10° NNE 06:30:47 47° E 06:35:41 10° S visible
30 Jan 3.2 17:46:02 10° S 17:51:06 78° WSW 17:56:14 10° NNW visible
30 Jan 6.2 19:28:37 10° WSW 19:31:00 13° W 19:33:24 10° NW visible
31 Jan 5.4 05:49:33 10° NE 05:53:43 25° E 05:57:51 10° SE visible
31 Jan 5.3 18:49:32 10° SSW 18:53:44 26° W 18:57:58 10° NW visible
01 Feb 6.3 05:14:13 10° ENE 05:16:25 13° E 05:18:38 10° ESE visible
01 Feb 3.3 06:51:15 10° NNE 06:56:21 76° ESE 07:01:26 10° S visible
01 Feb 4.1 18:11:45 10° S 18:16:41 49° W 18:21:37 10° NNW visible
